• In Österreich
  • Länderverzeichnis
  • Für 7 Tage
  • Wassertemperatur
  • Satellitenkarten
  • Wetterkarte
  • News
  • Widgets
  • user-avatar
    Anmelden

    Stündliche Wetter Marrakesh

    Heute, 23 Januar, Dienstag

    Zeit Temperatur Niederschläge Wind Luftdruck Luftfeuchtigkeit
    00:00 +13°C° 0 mm 1 m/S 727 mmHg 50%
    01:00 +13°C° 0 mm 1 m/S 727 mmHg 50%
    02:00 +12°C° 0 mm 1 m/S 727 mmHg 51%
    03:00 +12°C° 0 mm 1 m/S 727 mmHg 51%
    04:00 +12°C° 0 mm 1 m/S 727 mmHg 50%
    05:00 +11°C° 0 mm 1 m/S 727 mmHg 53%
    06:00 +13°C° 0 mm 1 m/S 727 mmHg 50%
    07:00 +14°C° 0 mm 1 m/S 727 mmHg 47%
    08:00 +16°C° 0 mm 1 m/S 728 mmHg 45%
    09:00 +18°C° 0 mm 1 m/S 728 mmHg 39%
    10:00 +20°C° 0 mm 1 m/S 728 mmHg 33%
    11:00 +21°C° 0 mm 1 m/S 728 mmHg 30%
    12:00 +20°C° 0 mm 2 m/S 728 mmHg 28%
    13:00 +21°C° 0 mm 2 m/S 728 mmHg 27%
    14:00 +23°C° 0 mm 2 m/S 727 mmHg 25%
    15:00 +20°C° 0 mm 2 m/S 727 mmHg 30%
    16:00 +19°C° 0 mm 2 m/S 727 mmHg 35%
    17:00 +18°C° 0 mm 2 m/S 727 mmHg 40%
    18:00 +17°C° 0 mm 2 m/S 727 mmHg 45%
    19:00 +16°C° 0 mm 1 m/S 727 mmHg 51%
    20:00 +15°C° 0 mm 1 m/S 728 mmHg 56%
    21:00 +15°C° 0 mm 1 m/S 728 mmHg 58%
    22:00 +14°C° 0 mm 1 m/S 727 mmHg 60%
    23:00 +14°C° 0 mm 1 m/S 727 mmHg 62%

    Morgen, 24 Januar, Mittwoch

    Zeit Temperatur Niederschläge Wind Luftdruck Luftfeuchtigkeit
    00:00 +13°C° 0 mm 1 m/S 727 mmHg 61%
    01:00 +13°C° 0 mm 1 m/S 727 mmHg 61%
    02:00 +13°C° 0 mm 1 m/S 727 mmHg 60%
    03:00 +12°C° 0 mm 1 m/S 727 mmHg 60%
    04:00 +12°C° 0 mm 1 m/S 727 mmHg 60%
    05:00 +12°C° 0 mm 1 m/S 727 mmHg 60%
    06:00 +13°C° 0 mm 1 m/S 727 mmHg 55%
    07:00 +15°C° 0 mm 1 m/S 728 mmHg 51%
    08:00 +16°C° 0 mm 1 m/S 728 mmHg 46%
    09:00 +19°C° 0 mm 1 m/S 728 mmHg 40%
    10:00 +20°C° 0 mm 1 m/S 728 mmHg 34%
    11:00 +22°C° 0 mm 1 m/S 728 mmHg 28%
    12:00 +21°C° 0 mm 2 m/S 728 mmHg 27%
    13:00 +23°C° 0 mm 2 m/S 728 mmHg 25%
    14:00 +22°C° 0 mm 3 m/S 727 mmHg 24%
    15:00 +21°C° 0 mm 3 m/S 727 mmHg 28%
    16:00 +20°C° 0 mm 2 m/S 727 mmHg 33%
    17:00 +19°C° 0 mm 2 m/S 727 mmHg 37%
    18:00 +18°C° 0 mm 2 m/S 728 mmHg 44%
    19:00 +16°C° 0 mm 1 m/S 728 mmHg 51%
    20:00 +15°C° 0 mm 1 m/S 728 mmHg 58%
    21:00 +15°C° 0 mm 1 m/S 728 mmHg 61%
    22:00 +14°C° 0 mm 1 m/S 728 mmHg 63%
    23:00 +14°C° 0 mm 1 m/S 728 mmHg 66%

    übermorgen, 25 Januar, Donnerstag

    Zeit Temperatur Niederschläge Wind Luftdruck Luftfeuchtigkeit
    00:00 +14°C° 0 mm 1 m/S 727 mmHg 67%
    01:00 +13°C° 0 mm 1 m/S 727 mmHg 68%
    02:00 +13°C° 0 mm 1 m/S 727 mmHg 68%
    03:00 +13°C° 0 mm 1 m/S 727 mmHg 70%
    04:00 +12°C° 0 mm 1 m/S 727 mmHg 71%
    05:00 +12°C° 0 mm 1 m/S 727 mmHg 73%
    06:00 +13°C° 0 mm 1 m/S 727 mmHg 69%
    07:00 +14°C° 0 mm 1 m/S 728 mmHg 65%
    08:00 +15°C° 0 mm 1 m/S 728 mmHg 61%
    09:00 +16°C° 0 mm 1 m/S 728 mmHg 56%
    10:00 +17°C° 0 mm 2 m/S 728 mmHg 51%
    11:00 +18°C° 0 mm 2 m/S 728 mmHg 46%
    12:00 +19°C° 0 mm 2 m/S 728 mmHg 43%
    13:00 +19°C° 0 mm 2 m/S 727 mmHg 40%
    14:00 +20°C° 0 mm 2 m/S 727 mmHg 38%
    15:00 +19°C° 0 mm 2 m/S 727 mmHg 42%
    16:00 +18°C° 0 mm 3 m/S 727 mmHg 47%
    17:00 +17°C° 0 mm 3 m/S 727 mmHg 51%
    18:00 +16°C° 0 mm 3 m/S 727 mmHg 58%
    19:00 +15°C° 0 mm 2 m/S 728 mmHg 65%
    20:00 +14°C° 0 mm 2 m/S 728 mmHg 72%
    21:00 +13°C° 0 mm 2 m/S 728 mmHg 75%
    22:00 +13°C° 0 mm 2 m/S 728 mmHg 78%
    23:00 +12°C° 0 mm 2 m/S 728 mmHg 81%

    26 Januar, Freitag

    Zeit Temperatur Niederschläge Wind Luftdruck Luftfeuchtigkeit
    00:00 +12°C° 0 mm 2 m/S 728 mmHg 81%
    01:00 +10°C° 0 mm 2 m/S 727 mmHg 80%
    02:00 +10°C° 0 mm 2 m/S 727 mmHg 79%
    03:00 +10°C° 0 mm 2 m/S 727 mmHg 79%
    04:00 +9°C° 0 mm 2 m/S 727 mmHg 79%
    05:00 +9°C° 0 mm 2 m/S 727 mmHg 79%
    06:00 +10°C° 0 mm 2 m/S 728 mmHg 77%
    07:00 +10°C° 0 mm 3 m/S 728 mmHg 75%
    08:00 +11°C° 0 mm 3 m/S 728 mmHg 72%
    09:00 +12°C° 0 mm 4 m/S 728 mmHg 67%
    10:00 +13°C° 0 mm 4 m/S 728 mmHg 62%
    11:00 +14°C° 0 mm 5 m/S 728 mmHg 57%
    12:00 +14°C° 0 mm 6 m/S 728 mmHg 56%
    13:00 +14°C° 0 mm 6 m/S 727 mmHg 54%
    14:00 +15°C° 0 mm 7 m/S 727 mmHg 52%
    15:00 +14°C° 0 mm 7 m/S 727 mmHg 53%
    16:00 +13°C° 0 mm 6 m/S 727 mmHg 54%
    17:00 +11°C° 0 mm 6 m/S 727 mmHg 55%
    18:00 +10°C° 0 mm 6 m/S 728 mmHg 57%
    19:00 +9°C° 0 mm 6 m/S 728 mmHg 59%
    20:00 +9°C° 0 mm 6 m/S 729 mmHg 62%
    21:00 +8°C° 0 mm 5 m/S 728 mmHg 62%
    22:00 +8°C° 0 mm 5 m/S 728 mmHg 63%
    23:00 +7°C° 0 mm 4 m/S 728 mmHg 63%

    27 Januar, Samstag

    Zeit Temperatur Niederschläge Wind Luftdruck Luftfeuchtigkeit
    00:00 +7°C° 0 mm 4 m/S 728 mmHg 63%
    01:00 +6°C° 0 mm 4 m/S 728 mmHg 62%
    02:00 +7°C° 0 mm 3 m/S 728 mmHg 62%
    03:00 +7°C° 0 mm 3 m/S 728 mmHg 62%
    04:00 +5°C° 0 mm 3 m/S 728 mmHg 62%
    05:00 +5°C° 0 mm 3 m/S 728 mmHg 63%
    06:00 +7°C° 0 mm 3 m/S 728 mmHg 57%
    07:00 +8°C° 0 mm 3 m/S 728 mmHg 51%
    08:00 +9°C° 0 mm 2 m/S 729 mmHg 45%
    09:00 +10°C° 0 mm 3 m/S 728 mmHg 38%
    10:00 +12°C° 0 mm 4 m/S 728 mmHg 30%
    11:00 +14°C° 0 mm 4 m/S 728 mmHg 23%
    12:00 +14°C° 0 mm 4 m/S 728 mmHg 21%
    13:00 +15°C° 0 mm 4 m/S 727 mmHg 19%
    14:00 +15°C° 0 mm 4 m/S 726 mmHg 17%
    15:00 +14°C° 0 mm 4 m/S 726 mmHg 20%
    16:00 +13°C° 0 mm 4 m/S 726 mmHg 23%
    17:00 +12°C° 0 mm 4 m/S 726 mmHg 27%
    18:00 +11°C° 0 mm 4 m/S 727 mmHg 32%
    19:00 +10°C° 0 mm 3 m/S 727 mmHg 37%
    20:00 +9°C° 0 mm 3 m/S 727 mmHg 43%
    21:00 +9°C° 0 mm 3 m/S 727 mmHg 45%
    22:00 +8°C° 0 mm 3 m/S 727 mmHg 47%
    23:00 +8°C° 0 mm 2 m/S 727 mmHg 49%

    28 Januar, Sonntag

    Zeit Temperatur Niederschläge Wind Luftdruck Luftfeuchtigkeit
    00:00 +8°C° 0 mm 2 m/S 726 mmHg 49%
    01:00 +7°C° 0 mm 2 m/S 726 mmHg 49%
    02:00 +7°C° 0 mm 2 m/S 726 mmHg 49%
    03:00 +7°C° 0 mm 2 m/S 725 mmHg 49%
    04:00 +6°C° 0 mm 2 m/S 725 mmHg 48%
    05:00 +7°C° 0 mm 1 m/S 725 mmHg 48%
    06:00 +8°C° 0 mm 1 m/S 725 mmHg 45%
    07:00 +10°C° 0 mm 1 m/S 725 mmHg 41%
    08:00 +11°C° 0 mm 1 m/S 725 mmHg 37%
    09:00 +12°C° 0 mm 2 m/S 725 mmHg 37%
    10:00 +12°C° 0 mm 3 m/S 724 mmHg 37%
    11:00 +13°C° 0 mm 4 m/S 724 mmHg 36%
    12:00 +11°C° 1,3 mm 4 m/S 723 mmHg 48%
    13:00 +10°C° 1,3 mm 4 m/S 723 mmHg 60%
    14:00 +7°C° 1,3 mm 4 m/S 722 mmHg 71%
    15:00 +7°C° 0,7 mm 4 m/S 722 mmHg 70%
    16:00 +7°C° 0,7 mm 4 m/S 723 mmHg 69%
    17:00 +9°C° 0,7 mm 3 m/S 723 mmHg 68%
    18:00 +7°C° 0,2 mm 4 m/S 723 mmHg 68%
    19:00 +7°C° 0,2 mm 4 m/S 724 mmHg 68%
    20:00 +7°C° 0,2 mm 5 m/S 724 mmHg 67%
    21:00 +6°C° 0 mm 4 m/S 725 mmHg 67%
    22:00 +6°C° 0 mm 4 m/S 725 mmHg 67%
    23:00 +6°C° 0 mm 4 m/S 725 mmHg 67%
    Mehr zeigen